This is the latest recevied weather packets stored in our database for station/object DO1SC. If no packets are shown the sender has not sent any weather packets the latest 10 day(s).
| Time | Temp. | Humidity | Pressure | Rain* | Wind** | Luminosity | Snow |
|---|---|---|---|---|---|---|---|
| 1777739724 | 22.78° C | 26% | 1019.6 hPa | - | - | 87 W/m² | - |
| 1777739138 | 22.78° C | 25% | 1019.6 hPa | - | - | 92 W/m² | - |
| 1777738527 | 22.78° C | 25% | 1019.7 hPa | - | - | 113 W/m² | - |
| 1777737938 | 22.78° C | 24% | 1019.8 hPa | - | - | 139 W/m² | - |
| 1777737330 | 22.78° C | 25% | 1019.9 hPa | - | - | 199 W/m² | - |
| 1777736722 | 22.78° C | 25% | 1020 hPa | - | - | 73 W/m² | - |
| 1777736133 | 22.78° C | 24% | 1020 hPa | - | - | 67 W/m² | - |
| 1777735525 | 23.33° C | 24% | 1020.1 hPa | - | - | 66 W/m² | - |
| 1777734936 | 22.78° C | 23% | 1020.2 hPa | - | - | 235 W/m² | - |
| 1777734328 | 23.33° C | 22% | 1020.3 hPa | - | - | 322 W/m² | - |
| 1777733720 | 22.78° C | 23% | 1020.4 hPa | - | - | 343 W/m² | - |
| 1777733134 | 23.33° C | 23% | 1020.5 hPa | - | - | 266 W/m² | - |
| 1777732522 | 23.33° C | 23% | 1020.7 hPa | - | - | 427 W/m² | - |
| 1777731934 | 22.78° C | 24% | 1021 hPa | - | - | 475 W/m² | - |
| 1777731325 | 22.78° C | 22% | 1020.9 hPa | - | - | 494 W/m² | - |
| 1777730716 | 22.78° C | 22% | 1021.2 hPa | - | - | 497 W/m² | - |
| 1777730131 | 22.78° C | 26% | 1021.3 hPa | - | - | 519 W/m² | - |
| 1777728929 | 22.78° C | 25% | 1021.5 hPa | - | - | 555 W/m² | - |
| 1777728321 | 22.78° C | 25% | 1021.7 hPa | - | - | 588 W/m² | - |
| 1777727736 | 22.78° C | 24% | 1021.6 hPa | - | - | 578 W/m² | - |
| 1777727125 | 22.78° C | 24% | 1021.9 hPa | - | - | 620 W/m² | - |
| 1777726536 | 22.78° C | 26% | 1022.1 hPa | - | - | 631 W/m² | - |
| 1777725927 | 22.22° C | 25% | 1022.2 hPa | - | - | 641 W/m² | - |
| 1777725318 | 22.22° C | 27% | 1022.3 hPa | - | - | 651 W/m² | - |
| 1777724729 | 22.22° C | 25% | 1022.4 hPa | - | - | 660 W/m² | - |
* Rain since midnight (hover to see other rain measurements)
** Current wind speed in m/s (hover to see current wind gust speed)